Location: Shenandoah County Park
(38.9356°N, 78.4524°W)
Time: 09:52:47
(UTC-05:00)

S-56A Canister/Altair - All Passes

Search period start: 11 December 2023 00:00
Search period end: 21 December 2023 00:00
Orbit: 640 x 2489 km, 38.8° (Epoch: 10 December)

Date Brightness Start Highest point End Pass type
(mag) Time Alt. Az. Time Alt. Az. Time Alt. Az.
11 Dec - 07:02:58 10° S 07:06:07 13° SSE 07:08:53 10° ESE daylight
11 Dec - 09:03:35 10° SW 09:10:01 39° SSE 09:14:46 10° E daylight
11 Dec - 11:08:06 10° W 11:13:38 84° S 11:18:08 10° E daylight
11 Dec - 13:12:34 10° W 13:17:11 75° SSW 13:21:47 10° ESE daylight
11 Dec - 15:16:39 10° W 15:20:27 26° SSW 15:24:50 10° SSE daylight
12 Dec - 06:30:20 10° SSE 06:32:51 11° SE 06:35:09 10° SE visible
12 Dec - 08:30:04 10° SW 08:36:54 36° SSE 08:41:50 10° E daylight
12 Dec - 10:34:37 10° WSW 10:40:36 80° S 10:45:12 10° E daylight
12 Dec - 12:39:23 10° W 12:44:12 81° S 12:48:42 10° ESE daylight
12 Dec - 14:43:33 10° W 14:47:27 29° SSW 14:51:47 10° SE daylight
13 Dec - 05:58:18 10° SSE 05:59:33 10° SE 06:00:45 10° SE visible
13 Dec - 07:56:30 10° SW 08:03:43 34° SSE 08:08:54 10° E daylight
13 Dec - 10:01:02 10° WSW 10:07:32 75° SSE 10:12:19 10° E daylight
13 Dec - 12:06:06 10° W 12:11:12 85° S 12:15:40 10° E daylight
13 Dec - 14:10:25 10° W 14:14:29 34° SSW 14:18:47 10° SE daylight
14 Dec - 07:22:55 10° SSW 07:30:29 32° SSE 07:35:55 10° E daylight
14 Dec - 09:27:22 10° WSW 09:34:26 71° SSE 09:39:27 10° E daylight
14 Dec - 11:32:43 10° W 11:38:12 88° S 11:42:41 10° E daylight
14 Dec - 13:37:15 10° W 13:41:31 39° SSW 13:45:48 10° SE daylight
15 Dec - 06:49:19 10° SSW 06:57:13 30° SSE 07:02:55 10° E visible
15 Dec - 08:53:38 10° WSW 09:01:18 67° SSE 09:06:34 10° E daylight
15 Dec - 10:59:13 10° W 11:05:10 90° E 11:09:46 10° E daylight
15 Dec - 13:04:01 10° W 13:08:34 45° SSW 13:12:52 10° SE daylight
16 Dec - 06:15:43 10° SSW 06:23:53 28° SSE 06:29:51 10° E visible
16 Dec - 08:19:49 10° WSW 08:28:07 63° SSE 08:33:43 10° E daylight
16 Dec - 10:25:37 10° W 10:32:05 89° N 10:36:51 10° E daylight
16 Dec - 12:30:43 10° W 12:35:37 53° SSW 12:39:58 10° SE daylight
16 Dec - 14:36:41 10° WSW 14:38:31 12° SW 14:40:24 10° S daylight
17 Dec - 05:42:09 10° SSW 05:50:29 26° SSE 05:56:43 10° E visible
17 Dec - 07:45:56 10° WSW 07:54:53 59° SSE 08:00:50 10° E daylight
17 Dec - 09:51:54 10° W 09:58:58 90° N 10:03:59 10° E daylight
17 Dec - 11:57:19 10° W 12:02:39 60° SSW 12:07:04 10° ESE daylight
17 Dec - 14:02:55 10° WSW 14:05:33 15° SW 14:08:09 10° S daylight
18 Dec - 05:08:36 10° SSW 05:17:04 24° SSE 05:23:29 10° E visible
18 Dec - 07:12:01 10° SW 07:21:35 56° SSE 07:27:56 10° E daylight
18 Dec - 09:18:05 10° W 09:25:49 89° S 09:31:07 10° E daylight
18 Dec - 11:23:51 10° W 11:29:39 68° SSW 11:34:11 10° ESE daylight
18 Dec - 13:29:19 10° W 13:32:35 19° SW 13:35:43 10° S daylight
19 Dec - 04:35:09 10° S 04:43:34 22° SE 04:50:09 10° E visible
19 Dec - 06:38:03 10° SW 06:48:14 53° SSE 06:55:01 10° E visible
19 Dec - 08:44:10 10° W 08:52:37 87° S 08:58:15 10° E daylight
19 Dec - 10:50:15 10° W 10:56:36 75° SSW 11:01:19 10° ESE daylight
19 Dec - 12:55:46 10° W 12:59:39 23° SW 13:03:11 10° SSE daylight
20 Dec - 04:01:47 10° S 04:10:02 21° SE 04:16:40 10° E visible
20 Dec - 06:04:05 10° SW 06:14:49 50° SSE 06:22:01 10° E visible
20 Dec - 08:10:10 10° WSW 08:19:22 84° S 08:25:23 10° E daylight
20 Dec - 10:16:34 10° W 10:23:31 81° SSW 10:28:28 10° ESE daylight
20 Dec - 12:22:12 10° W 12:26:43 28° SSW 12:30:35 10° SSE daylight
